Tracking 25656 objects as of 21-May-2022
HD Live streaming from Space Station
objects crossing your sky now

SL-14 DEB

Track SL-14 DEB now!
10-day predictions


NORAD ID: 26007
Int'l Code: 1991-068S
Perigee: 1,470.2 km
Apogee: 1,486.9 km
Inclination: 82.7 °
Period: 115.4 minutes
Semi major axis: 7849 km
RCS: 0.1171 m2 (medium)
Launch date: September 28, 1991
Source: Commonwealth of Independent States (former USSR) (CIS)
Launch site: PLESETSK MISSILE AND SPACE COMPLEX (PKMTR)

Note: This is SATELLITE DEBRIS
aabbcc
Your satellite tracking list
Your tracking list is empty




NASA's NSSDC Master Catalog

Two Line Element Set (TLE):
1 26007U 91068S   22141.10056190  .00000027  00000-0  11006-3 0  9991
2 26007  82.6982  83.8686 0010666 227.7796 142.9226 12.48343631 30240
Source of the keplerian elements: AFSPC